Weather History for Delaware, OH

Change the Weather History Date:

Friday, October 11, 2013

  Actual Average Record
Temperature  
Mean Temperature 59 °F -  
Max Temperature 77 °F 66 °F 85 °F (1954)
Min Temperature 41 °F 39 °F 19 °F (1964)
Degree Days  
Heating Degree Days 6    
Growing Degree Days 9 (Base 50)    
Moisture  
Dew Point 43 °F    
Average Humidity 69    
Maximum Humidity 100    
Minimum Humidity 28    
Precipitation  
Precipitation 0.00 in - - ()
Sea Level Pressure  
Sea Level Pressure 30.09 in    
Wind  
Wind Speed 1 mph (NNE)    
Max Wind Speed 6 mph    
Max Gust Speed -    
Visibility 10 miles    
Events      
Averages and records for this station are not official NWS values.
T = Trace of Precipitation, MM = Missing Value Source: NWS Daily Summary

Daily Weather History Graph

Daily Weather History Graph

Search for Another Location

Airport:

Trip Planner

Search our weather history database for the weather conditions in past years. The results will help you decide how hot, cold, wet, or windy it might be!

Date:

Astronomy

Oct. 11, 2013 Rise Set
Actual Time 7:39 AM EDT 6:58 PM EDT
Civil Twilight 7:11 AM EDT 7:25 PM EDT
Nautical Twilight 6:40 AM EDT 7:57 PM EDT
Astronomical Twilight 6:08 AM EDT 8:28 PM EDT
Moon 2:20 PM EDT (10/11) No Moon Set
Length of Visible Light 12h 13m
Length of Day
11h 19m
Waxing Crescent, 47% of the Moon is Illuminated
Oct 11
Waxing Crescent
Oct 11
First Quarter
Oct 18
Full
Oct 26
Last Quarter
Nov 3
New

Hourly Weather History & Observations

Time (EDT) Temp. Windchill Dew Point Humidity Pressure Visibility Wind Dir Wind Speed Gust Speed Precip Events Conditions
12:17 AM 44.6 °F - 42.8 °F 93% 30.10 in 10.0 mi Calm Calm - N/A   Clear
12:38 AM 44.6 °F - 42.8 °F 93% 30.10 in 10.0 mi Calm Calm - N/A   Clear
12:57 AM 44.6 °F - 42.8 °F 93% 30.10 in 10.0 mi Calm Calm - N/A   Clear
1:17 AM 44.6 °F 43.1 °F 42.8 °F 93% 30.10 in 10.0 mi WNW 3.5 mph - N/A   Clear
1:38 AM 44.6 °F - 42.8 °F 93% 30.10 in 10.0 mi Calm Calm - N/A   Clear
1:57 AM 42.8 °F - 42.8 °F 100% 30.10 in 10.0 mi Calm Calm - N/A   Clear
2:17 AM 44.6 °F - 42.8 °F 93% 30.10 in 10.0 mi Calm Calm - N/A   Clear
2:38 AM 42.8 °F - 41.0 °F 93% 30.10 in 10.0 mi Calm Calm - N/A   Clear
2:57 AM 42.8 °F - 41.0 °F 93% 30.10 in 10.0 mi Calm Calm - N/A   Clear
3:17 AM 42.8 °F - 41.0 °F 93% 30.09 in 10.0 mi Calm Calm - N/A   Clear
3:38 AM 42.8 °F 41.1 °F 42.8 °F 100% 30.09 in 10.0 mi West 3.5 mph - N/A   Clear
3:57 AM 42.8 °F - 41.0 °F 93% 30.09 in 10.0 mi Calm Calm - N/A   Clear
4:17 AM 42.8 °F - 42.8 °F 100% 30.09 in 10.0 mi Calm Calm - N/A   Clear
4:37 AM 42.8 °F - 41.0 °F 93% 30.09 in 10.0 mi Calm Calm - N/A   Clear
4:57 AM 42.8 °F - 41.0 °F 93% 30.09 in 10.0 mi Calm Calm - N/A   Clear
5:17 AM 41.0 °F - 41.0 °F 100% 30.09 in 10.0 mi Calm Calm - N/A   Clear
5:37 AM 41.0 °F - 41.0 °F 100% 30.09 in 10.0 mi Calm Calm - N/A   Clear
5:57 AM 41.0 °F - 41.0 °F 100% 30.09 in 10.0 mi Calm Calm - N/A   Clear
6:17 AM 41.0 °F - 41.0 °F 100% 30.10 in 10.0 mi Calm Calm - N/A   Clear
6:37 AM 41.0 °F - 41.0 °F 100% 30.10 in 7.0 mi Calm Calm - N/A   Clear
6:57 AM 41.0 °F - 41.0 °F 100% 30.10 in 7.0 mi Calm Calm - N/A   Clear
7:17 AM 41.0 °F - 39.2 °F 93% 30.11 in 10.0 mi Calm Calm - N/A   Clear
7:37 AM 41.0 °F - 39.2 °F 93% 30.12 in 7.0 mi Calm Calm - N/A   Clear
7:57 AM 41.0 °F 39.0 °F 41.0 °F 100% 30.12 in 7.0 mi NW 3.5 mph - N/A   Clear
8:17 AM 42.8 °F - 42.8 °F 100% 30.12 in 7.0 mi Calm Calm - N/A   Clear
8:37 AM 46.4 °F - 44.6 °F 93% 30.13 in 10.0 mi Calm Calm - N/A   Clear
8:57 AM 48.2 °F - 46.4 °F 93% 30.13 in 10.0 mi Calm Calm - N/A   Clear
9:17 AM 51.8 °F - 46.4 °F 82% 30.14 in 10.0 mi Calm Calm - N/A   Clear
9:37 AM 53.6 °F - 44.6 °F 72% 30.14 in 10.0 mi Calm Calm - N/A   Clear
9:57 AM 57.2 °F - 46.4 °F 67% 30.13 in 10.0 mi Calm Calm - N/A   Clear
10:18 AM 60.8 °F - 46.4 °F 59% 30.13 in 10.0 mi Calm Calm - N/A   Clear
10:37 AM 62.6 °F - 46.4 °F 55% 30.13 in 10.0 mi Calm Calm - N/A   Clear
10:57 AM 64.4 °F - 48.2 °F 56% 30.13 in 10.0 mi Calm Calm - N/A   Clear
11:18 AM 66.2 °F - 46.4 °F 49% 30.13 in 10.0 mi Calm Calm - N/A   Clear
11:37 AM 68.0 °F - 42.8 °F 40% 30.12 in 10.0 mi NE 3.5 mph - N/A   Clear
11:57 AM 69.8 °F - 42.8 °F 38% 30.12 in 10.0 mi NNE 4.6 mph - N/A   Clear
12:18 PM 71.6 °F - 41.0 °F 33% 30.12 in 10.0 mi ENE 5.8 mph - N/A   Clear
12:37 PM 71.6 °F - 42.8 °F 35% 30.11 in 10.0 mi Calm Calm - N/A   Clear
12:57 PM 71.6 °F - 42.8 °F 35% 30.11 in 10.0 mi NNE 3.5 mph - N/A   Clear
1:18 PM 73.4 °F - 41.0 °F 31% 30.10 in 10.0 mi North 3.5 mph - N/A   Clear
1:37 PM 73.4 °F - 39.2 °F 29% 30.09 in 10.0 mi NE 5.8 mph - N/A   Clear
1:57 PM 73.4 °F - 41.0 °F 31% 30.08 in 10.0 mi North 4.6 mph - N/A   Clear
2:18 PM 75.2 °F - 41.0 °F 29% 30.07 in 10.0 mi Calm Calm - N/A   Clear
2:37 PM 73.4 °F - 42.8 °F 33% 30.07 in 10.0 mi Calm Calm - N/A   Clear
2:57 PM 77.0 °F - 42.8 °F 29% 30.06 in 10.0 mi NE 5.8 mph - N/A   Clear
3:17 PM 77.0 °F - 42.8 °F 29% 30.06 in 10.0 mi NE 5.8 mph - N/A   Clear
3:37 PM 77.0 °F - 42.8 °F 29% 30.06 in 10.0 mi North 3.5 mph - N/A   Clear
3:57 PM 77.0 °F - 41.0 °F 28% 30.06 in 10.0 mi Calm Calm - N/A   Clear
4:17 PM 77.0 °F - 41.0 °F 28% 30.05 in 10.0 mi NNE 5.8 mph - N/A   Clear
4:37 PM 77.0 °F - 41.0 °F 28% 30.05 in 10.0 mi NNE 3.5 mph - N/A   Clear
4:57 PM 77.0 °F - 41.0 °F 28% 30.05 in 10.0 mi North 4.6 mph - N/A   Clear
5:17 PM 77.0 °F - 41.0 °F 28% 30.05 in 10.0 mi NNE 4.6 mph - N/A   Clear
5:37 PM 75.2 °F - 41.0 °F 29% 30.05 in 10.0 mi NE 5.8 mph - N/A   Clear
5:57 PM 73.4 °F - 41.0 °F 31% 30.05 in 10.0 mi NNE 5.8 mph - N/A   Clear
6:17 PM 71.6 °F - 39.2 °F 31% 30.05 in 10.0 mi NNE 4.6 mph - N/A   Clear
6:37 PM 69.8 °F - 39.2 °F 33% 30.05 in 10.0 mi North 3.5 mph - N/A   Clear
6:57 PM 64.4 °F - 41.0 °F 42% 30.06 in 10.0 mi NNE 3.5 mph - N/A   Clear
7:17 PM 59.0 °F - 46.4 °F 63% 30.06 in 10.0 mi North 3.5 mph - N/A   Clear
7:37 PM 55.4 °F - 44.6 °F 67% 30.07 in 10.0 mi ENE 3.5 mph - N/A   Clear
7:58 PM 53.6 °F - 46.4 °F 77% 30.07 in 10.0 mi Calm Calm - N/A   Clear
8:17 PM 51.8 °F - 46.4 °F 82% 30.07 in 10.0 mi Calm Calm - N/A   Clear
8:37 PM 51.8 °F - 46.4 °F 82% 30.07 in 10.0 mi Calm Calm - N/A   Clear
8:58 PM 51.8 °F - 46.4 °F 82% 30.08 in 10.0 mi Calm Calm - N/A   Clear
9:17 PM 51.8 °F - 46.4 °F 82% 30.07 in 10.0 mi Calm Calm - N/A   Clear
9:37 PM 51.8 °F - 46.4 °F 82% 30.07 in 10.0 mi ENE 3.5 mph - N/A   Clear
9:58 PM 50.0 °F - 46.4 °F 87% 30.08 in 10.0 mi Calm Calm - N/A   Clear
10:17 PM 50.0 °F - 46.4 °F 87% 30.07 in 10.0 mi Calm Calm - N/A   Clear
10:37 PM 50.0 °F - 46.4 °F 87% 30.07 in 10.0 mi East 3.5 mph - N/A   Clear
10:57 PM 50.0 °F - 46.4 °F 87% 30.07 in 10.0 mi East 3.5 mph - N/A   Clear
11:17 PM 50.0 °F - 46.4 °F 87% 30.07 in 10.0 mi Calm Calm - N/A   Clear
11:38 PM 53.6 °F - 46.4 °F 77% 30.08 in 10.0 mi East 3.5 mph - N/A   Clear
11:57 PM 50.0 °F - 46.4 °F 87% 30.07 in 10.0 mi East 3.5 mph - N/A   Clear